| time (UTC) | temp F | wind direction | speed MPH | gust MPH | rain 1hr in | rain 24hr in | rain mn in | humidity % | barometer mb |
| 20260904055310 | 69 | 244 | 11.0 | 20.0 | 0.00 | 0.00 | 0.00 | 82 | 9.2 |
| 20260904054310 | 69 | 225 | 9.0 | 18.0 | 0.00 | 0.00 | 0.00 | 82 | 9.4 |
| 20260904053311 | 69 | 286 | 8.0 | 17.0 | 0.00 | 0.00 | 0.00 | 82 | 9.4 |
| 20260904052310 | 69 | 277 | 8.0 | 21.0 | 0.00 | 0.00 | 0.00 | 82 | 9.4 |
| 20260904045310 | 69 | 263 | 10.0 | 24.0 | 0.00 | 0.00 | 0.00 | 82 | 10.0 |
| 20260904044310 | 69 | 248 | 6.0 | 18.0 | 0.00 | 0.00 | 0.00 | 82 | 10.2 |
| 20260904041310 | 68 | 247 | 8.0 | 16.0 | 0.00 | 0.00 | 0.00 | 82 | 10.5 |
| 20260904035311 | 68 | 246 | 5.0 | 15.0 | 0.00 | 0.00 | 0.00 | 83 | 10.6 |
| 20260904034312 | 68 | 254 | 8.0 | 15.0 | 0.00 | 0.00 | 0.00 | 83 | 10.5 |
| 20260904033310 | 68 | 274 | 10.0 | 17.0 | 0.00 | 0.00 | 0.00 | 84 | 10.6 |
| 20260904032310 | 68 | 266 | 7.0 | 13.0 | 0.00 | 0.00 | 0.00 | 84 | 10.7 |
| 20260904031311 | 68 | 271 | 5.0 | 18.0 | 0.00 | 0.00 | 0.00 | 84 | 10.7 |
| 20260904024311 | 68 | 276 | 7.0 | 15.0 | 0.00 | 0.00 | 0.00 | 85 | 11.0 |
| 20260904022310 | 68 | 234 | 8.0 | 16.0 | 0.00 | 0.00 | 0.00 | 86 | 11.2 |
| 20260904021310 | 68 | 269 | 7.0 | 14.0 | 0.00 | 0.00 | 0.00 | 86 | 11.4 |
| 20260904015311 | 68 | 266 | 8.0 | 20.0 | 0.00 | 0.00 | 0.00 | 85 | 11.6 |
| 20260904014311 | 69 | 287 | 8.0 | 17.0 | 0.00 | 0.00 | 0.00 | 85 | 11.8 |
| 20260904013310 | 69 | 292 | 5.0 | 13.0 | 0.00 | 0.00 | 0.00 | 85 | 11.9 |
| 20260904012310 | 68 | 251 | 9.0 | 18.0 | 0.00 | 0.00 | 0.00 | 85 | 12.2 |
| 20260904011310 | 68 | 251 | 7.0 | 11.0 | 0.00 | 0.00 | 0.00 | 86 | 12.3 |
| 20260904005310 | 68 | 293 | 6.0 | 14.0 | 0.00 | 0.00 | 0.00 | 86 | 12.5 |
| 20260904004310 | 68 | 294 | 9.0 | 14.0 | 0.00 | 0.00 | 0.00 | 87 | 12.7 |
| 20260904001311 | 68 | 263 | 4.0 | 9.0 | 0.00 | 0.00 | 0.00 | 88 | 12.7 |
| 20260903235310 | 68 | 263 | 3.0 | 8.0 | 0.00 | 0.00 | 0.00 | 88 | 13.2 |
| 20260903234310 | 68 | 281 | 6.0 | 13.0 | 0.00 | 0.00 | 0.00 | 88 | 13.2 |
| 20260903233310 | 68 | 290 | 5.0 | 11.0 | 0.00 | 0.00 | 0.00 | 87 | 13.2 |
| 20260903232310 | 68 | 242 | 2.0 | 9.0 | 0.00 | 0.00 | 0.00 | 87 | 13.4 |
| 20260903231309 | 68 | 261 | 4.0 | 11.0 | 0.00 | 0.00 | 0.00 | 87 | 13.6 |
| 20260903225310 | 68 | 246 | 3.0 | 12.0 | 0.00 | 0.00 | 0.00 | 86 | 13.6 |
| 20260903223309 | 67 | 221 | 6.0 | 13.0 | 0.00 | 0.00 | 0.00 | 86 | 14.1 |
| 20260903222309 | 67 | 298 | 5.0 | 11.0 | 0.00 | 0.00 | 0.00 | 87 | 14.1 |
| 20260903221310 | 67 | 252 | 4.0 | 11.0 | 0.00 | 0.00 | 0.00 | 87 | 14.0 |
| 20260903220309 | 67 | 268 | 2.0 | 6.0 | 0.00 | 0.00 | 0.00 | 87 | 14.1 |
| 20260903215311 | 67 | 227 | 2.0 | 10.0 | 0.00 | 0.00 | 0.00 | 87 | 14.2 |
| 20260903214310 | 67 | 264 | 2.0 | 12.0 | 0.00 | 0.00 | 0.00 | 87 | 14.3 |
| 20260903213310 | 67 | 264 | 2.0 | 8.0 | 0.00 | 0.00 | 0.00 | 87 | 14.4 |
| 20260903205311 | 67 | 231 | 2.0 | 6.0 | 0.00 | 0.00 | 0.00 | 85 | 15.0 |
| 20260903204310 | 67 | 252 | 1.0 | 5.0 | 0.00 | 0.00 | 0.00 | 85 | 15.1 |
| 20260903203310 | 67 | 251 | 0.0 | 4.0 | 0.00 | 0.00 | 0.00 | 84 | 14.9 |
| 20260903202310 | 67 | 240 | 2.0 | 6.0 | 0.00 | 0.00 | 0.00 | 84 | 14.9 |
| 20260903201310 | 68 | 259 | 2.0 | 6.0 | 0.00 | 0.00 | 0.00 | 83 | 14.8 |
| 20260903194310 | 68 | 285 | 4.0 | 12.0 | 0.00 | 0.00 | 0.00 | 82 | 14.8 |
| 20260903193310 | 69 | 226 | 6.0 | 14.0 | 0.00 | 0.00 | 0.00 | 82 | 14.8 |
| 20260903192310 | 68 | 261 | 6.0 | 12.0 | 0.00 | 0.00 | 0.00 | 82 | 14.7 |
| 20260903191310 | 69 | 230 | 4.0 | 9.0 | 0.00 | 0.00 | 0.00 | 82 | 14.7 |
| 20260903184310 | 69 | 273 | 3.0 | 8.0 | 0.00 | 0.00 | 0.00 | 80 | 15.1 |
| 20260903183310 | 69 | 271 | 3.0 | 11.0 | 0.00 | 0.00 | 0.00 | 79 | 15.0 |
| 20260903182310 | 70 | 229 | 2.0 | 10.0 | 0.00 | 0.00 | 0.00 | 78 | 14.9 |
| 20260903175310 | 71 | 300 | 5.0 | 12.0 | 0.00 | 0.00 | 0.00 | 76 | 15.1 |
| 20260903173310 | 71 | 306 | 5.0 | 11.0 | 0.00 | 0.00 | 0.00 | 75 | 15.3 |
| 20260903172310 | 71 | 297 | 7.0 | 12.0 | 0.00 | 0.00 | 0.00 | 74 | 15.2 |
| 20260903165310 | 73 | 276 | 10.0 | 15.0 | 0.00 | 0.00 | 0.00 | 70 | 15.0 |
| 20260903164310 | 73 | 288 | 10.0 | 14.0 | 0.00 | 0.00 | 0.00 | 70 | 15.0 |
| 20260903163310 | 72 | 280 | 6.0 | 16.0 | 0.00 | 0.00 | 0.00 | 70 | 15.3 |
| 20260903162310 | 73 | 259 | 7.0 | 13.0 | 0.00 | 0.00 | 0.00 | 70 | 15.1 |
| 20260903161310 | 73 | 279 | 4.0 | 13.0 | 0.00 | 0.00 | 0.00 | 70 | 14.9 |
| 20260903154310 | 74 | 265 | 7.0 | 14.0 | 0.00 | 0.00 | 0.00 | 69 | 15.2 |
| 20260903153310 | 73 | 283 | 6.0 | 13.0 | 0.00 | 0.00 | 0.00 | 68 | 15.3 |
| 20260903152310 | 74 | 317 | 4.0 | 12.0 | 0.00 | 0.00 | 0.00 | 66 | 15.3 |
| 20260903151310 | 74 | 331 | 7.0 | 15.0 | 0.00 | 0.00 | 0.00 | 64 | 15.2 |
| 20260903144310 | 76 | 335 | 7.0 | 19.0 | 0.00 | 0.00 | 0.00 | 61 | 15.2 |
| 20260903143310 | 76 | 328 | 9.0 | 17.0 | 0.00 | 0.00 | 0.00 | 61 | 15.2 |
| 20260903142310 | 76 | 255 | 12.0 | 18.0 | 0.00 | 0.00 | 0.00 | 62 | 15.1 |
| 20260903141310 | 75 | 329 | 10.0 | 17.0 | 0.00 | 0.00 | 0.00 | 65 | 15.2 |
| 20260903135310 | 74 | 263 | 8.0 | 20.0 | 0.00 | 0.00 | 0.00 | 65 | 15.1 |
| 20260903134310 | 75 | 312 | 10.0 | 19.0 | 0.00 | 0.00 | 0.00 | 64 | 15.0 |
| 20260903133310 | 76 | 300 | 8.0 | 17.0 | 0.00 | 0.00 | 0.00 | 64 | 15.0 |
| 20260903132310 | 75 | 298 | 9.0 | 19.0 | 0.00 | 0.00 | 0.00 | 67 | 14.8 |
| 20260903131310 | 74 | 294 | 10.0 | 20.0 | 0.00 | 0.00 | 0.00 | 68 | 14.8 |
| 20260903123310 | 73 | 294 | 6.0 | 20.0 | 0.00 | 0.00 | 0.00 | 71 | 14.8 |
| 20260903122310 | 73 | 306 | 12.0 | 24.0 | 0.00 | 0.00 | 0.00 | 69 | 14.7 |
| 20260903112310 | 72 | 300 | 9.0 | 23.0 | 0.00 | 0.00 | 0.00 | 73 | 14.7 |
| 20260903110310 | 73 | 274 | 14.0 | 25.0 | 0.00 | 0.00 | 0.00 | 76 | 14.4 |
| 20260903105311 | 71 | 255 | 16.0 | 25.0 | 0.00 | 0.00 | 0.00 | 78 | 14.4 |
| 20260903104310 | 71 | 268 | 9.0 | 25.0 | 0.00 | 0.00 | 0.00 | 79 | 14.2 |
| 20260903103309 | 71 | 229 | 6.0 | 16.0 | 0.00 | 0.00 | 0.00 | 81 | 14.3 |
| 20260903102310 | 71 | 225 | 6.0 | 15.0 | 0.00 | 0.00 | 0.00 | 81 | 14.4 |
| 20260903101310 | 71 | 263 | 6.0 | 17.0 | 0.00 | 0.00 | 0.00 | 83 | 14.7 |
| 20260903095309 | 69 | 275 | 10.0 | 14.0 | 0.00 | 0.00 | 0.00 | 85 | 14.5 |
| 20260903094310 | 69 | 298 | 9.0 | 15.0 | 0.00 | 0.00 | 0.00 | 86 | 14.5 |
| 20260903093310 | 68 | 271 | 9.0 | 16.0 | 0.00 | 0.00 | 0.00 | 87 | 14.4 |
| 20260903092311 | 68 | 219 | 4.0 | 17.0 | 0.00 | 0.00 | 0.00 | 88 | 14.6 |
| 20260903091310 | 68 | 298 | 6.0 | 13.0 | 0.00 | 0.00 | 0.00 | 88 | 14.5 |
| 20260903085310 | 67 | 281 | 6.0 | 12.0 | 0.00 | 0.00 | 0.00 | 91 | 14.1 |
| 20260903084310 | 66 | 263 | 8.0 | 13.0 | 0.00 | 0.00 | 0.00 | 91 | 14.0 |
| 20260903083310 | 66 | 236 | 7.0 | 17.0 | 0.00 | 0.00 | 0.00 | 91 | 14.0 |
| 20260903082309 | 66 | 227 | 9.0 | 16.0 | 0.00 | 0.00 | 0.00 | 90 | 14.0 |
| 20260903075310 | 65 | 214 | 5.0 | 13.0 | 0.00 | 0.00 | 0.00 | 90 | 14.0 |
| 20260903073310 | 65 | 254 | 6.0 | 14.0 | 0.00 | 0.00 | 0.00 | 88 | 14.2 |
| 20260903072310 | 66 | 279 | 6.0 | 13.0 | 0.00 | 0.00 | 0.00 | 87 | 14.2 |
| 20260903071310 | 66 | 247 | 6.0 | 17.0 | 0.00 | 0.00 | 0.00 | 86 | 14.3 |
| 20260903065309 | 66 | 213 | 6.0 | 15.0 | 0.00 | 0.00 | 0.00 | 84 | 14.1 |
| 20260903064310 | 66 | 259 | 4.0 | 14.0 | 0.00 | 0.00 | 0.00 | 84 | 14.0 |
| 20260903063310 | 66 | 212 | 4.0 | 13.0 | 0.00 | 0.00 | 0.00 | 83 | 14.0 |
| 20260903062309 | 66 | 306 | 4.0 | 13.0 | 0.00 | 0.00 | 0.00 | 83 | 14.0 |
| 20260903061310 | 66 | 240 | 8.0 | 14.0 | 0.00 | 0.00 | 0.00 | 82 | 13.8 |